"Pseudo-MPEC" for P22gBet

Created 2025 Oct 18 0:35:17 UT using Find_Orb

Click here for an explanation of pseudo-MPECs

 
 Astrometry: 
     P22gBet* C2025 10 16.29589100 26 36.386+25 31 15.72   ~AGK5 21.35wXNEOCPF52
     P22gBet  C2025 10 16.30938700 26 39.419+25 31 43.50   ~AGK5 21.26wXNEOCPF52
     P22gBet  C2025 10 16.34378500 26 47.019+25 32 52.72   ~AGK5 21.36wXNEOCPF52
     P22gBet KC2025 10 16.91664500 29 15.98 +25 49 19.5    ~AGMo 21.0 VSNEOCPL01
     P22gBet pC2025 10 16.91918900 29 16.51 +25 49 23.9    ~AGMo 21.0 VSNEOCPL01
     P22gBet pC2025 10 16.92173000 29 17.15 +25 49 29.1    ~AGMo 21.1 VSNEOCPL01
     P22gBet KC2025 10 16.92426900 29 17.68 +25 49 33.2    ~AGMo 21.1 VSNEOCPL01
     P22gBet KC2025 10 16.92681200 29 18.23 +25 49 37.7    ~AGMo 21.1 VSNEOCPL01
     P22gBet KB2025 10 17.01392600 29 38.69 +25 52 05.3    ~AH15 21.1 GVNEOCPI93
     P22gBet KB2025 10 17.02085600 29 40.22 +25 52 17.1    ~AH15       VNEOCPI93
     P22gBet KB2025 10 17.02747000 29 41.64 +25 52 27.6    ~AH15 21.1 GVNEOCPI93
     P22gBet KC2025 10 17.09671500 30 06.10 +25 54 32.1    ~AH35 21.8 GVNEOCPH21
     P22gBet KC2025 10 17.10231000 30 07.32 +25 54 42.4    ~AH35       VNEOCPH21
     P22gBet KC2025 10 17.10650500 30 08.22 +25 54 50.0    ~AH35 21.3 GVNEOCPH21
     P22gBet KC2025 10 17.10930200 30 08.82 +25 54 54.9    ~AH35 21.1 GVNEOCPH21

Station data:
(F52) Pan-STARRS 2, Haleakala  (N20.707382 W156.255910)  US/Hawaii.
   Observers J. Herman, T. Lowe, P. Minguez, A. Schultz, I. Smith. Measurers
   K. Chambers, T. de Boer, J. Fairlamb, H. Gao, M. Huber, C.-C. Lin, E.
   Magnier, Y. Ramanjooloo, R. Wainscoat, R. Weryk. 1.8-m Ritchey-Chrétien +
   CCD.
(H21) Astronomical Research Observatory, Westfield  (N39.483054 W87.968270)
   US/Illinois.  Observer R. Holmes. Measurers S. Foglia, L. Buzzi, T.
   Linder, R. Holmes. 0.40-m f/5.32 astrograph + CCD.
(I93) St Pardon de Conques  (N44.558670 W0.202960)  France.  Observers F.
   Losse, W. D'Anna. Measurer F. Losse. 0.40-m f/3.7 reflector + CCD.
(L01) Višnjan Observatory, Tičan  (N45.290897 E13.749300)  Croatia.
   Observers K. Korlević, L. Poropat. Measurer K. Korlevic. 1.0-m f/2.9
   reflector + CCD.

Orbital elements:  P22gBet
   Perihelion 2025 Sep 3.246341 +/- 0.457 TT =  5:54:43.8 (JD 2460921.746341)
Epoch 2025 Oct 17.0 TT = JDT 2460965.5   Earth MOID: 0.0062   Ma: 0.0626
M  25.501894122 +/- 0.29            (J2000 ecliptic)             AutoNEOCP
n   0.582851689 +/- 0.00159         Peri.  330.354710 +/- 0.9
a   1.419375625 +/- 0.00259         Node     4.941681 +/- 0.30
e   0.30754934 +/- 0.00194          Incl.    4.471674 +/- 0.059
P   1.691/617.641d         H 25.83  G  0.15   U  8.4
q 0.982847577 +/- 0.00259    Q 1.855903674 +/- 0.00516
From 15 observations 2025 Oct. 16-17 (19.5 hr); mean residual 0".28
Residuals in arcseconds: 
251016 F52  .03+  .12-    251016 L01  .36+  .59+    251017 I93  .04-  .02+    
251016 F52  .01+  .08-    251016 L01  .05+  .33+    251017 H21  .05+  .06-    
251016 F52  .03-  .19+    251016 L01  .00   .48+    251017 H21  .10+  .00     
251016 L01  .47-  .25-    251017 I93  .20+  .51-    251017 H21  .02-  .05-    
251016 L01  .80-  .24-    251017 I93  .38+  .12+    251017 H21  .08-  .23-    

Ephemerides (geocentric):
Date (UTC) HH   RA             Dec           delta  r     elong  mag " sig PA
---- --------  ------------   ------------  ------ ------ -----  --- --------
2025 10 18 01  00 33 51.687   +26 19 51.70  .07764 1.0690 158.4 21.4 4.26  68
2025 10 18 02  00 34 01.380   +26 20 52.46  .07781 1.0692 158.4 21.4 4.53  68
2025 10 18 03  00 34 11.038   +26 21 52.84  .07798 1.0693 158.4 21.4 4.81  68
2025 10 18 04  00 34 20.663   +26 22 52.85  .07815 1.0695 158.4 21.4 5.10  67
2025 10 18 05  00 34 30.252   +26 23 52.48  .07832 1.0696 158.4 21.4 5.40  67
2025 10 18 06  00 34 39.808   +26 24 51.74  .07848 1.0698 158.4 21.5 5.70  67
2025 10 18 07  00 34 49.331   +26 25 50.63  .07865 1.0699 158.4 21.5 6.01  67
2025 10 18 08  00 34 58.819   +26 26 49.15  .07882 1.0700 158.4 21.5 6.32  67
2025 10 18 09  00 35 08.275   +26 27 47.31  .07899 1.0702 158.4 21.5 6.64  67
2025 10 18 10  00 35 17.697   +26 28 45.11  .07916 1.0703 158.4 21.5 6.97  67
2025 10 18 11  00 35 27.086   +26 29 42.55  .07933 1.0705 158.4 21.5 7.30  67
2025 10 18 12  00 35 36.443   +26 30 39.63  .07950 1.0706 158.4 21.5 7.64  67
2025 10 18 13  00 35 45.767   +26 31 36.36  .07967 1.0708 158.4 21.5 7.98  67
2025 10 18 14  00 35 55.058   +26 32 32.73  .07984 1.0709 158.4 21.5 8.34  67
2025 10 18 15  00 36 04.317   +26 33 28.75  .08001 1.0711 158.4 21.5 8.69  67
2025 10 18 16  00 36 13.544   +26 34 24.42  .08018 1.0712 158.4 21.5 9.05  67
2025 10 18 17  00 36 22.739   +26 35 19.74  .08035 1.0714 158.4 21.5 9.42  66
2025 10 18 18  00 36 31.903   +26 36 14.72  .08052 1.0715 158.4 21.5 9.80  66
2025 10 18 19  00 36 41.035   +26 37 09.36  .08068 1.0717 158.4 21.5 10.2  66
2025 10 18 20  00 36 50.135   +26 38 03.66  .08085 1.0718 158.4 21.5 10.6  66
2025 10 18 21  00 36 59.205   +26 38 57.62  .08102 1.0720 158.4 21.5 10.9  66
2025 10 18 22  00 37 08.243   +26 39 51.24  .08120 1.0721 158.4 21.5 11.3  66
2025 10 18 23  00 37 17.250   +26 40 44.52  .08137 1.0723 158.4 21.5 11.7  66
2025 10 19 00  00 37 26.227   +26 41 37.48  .08154 1.0724 158.4 21.5 12.1  66
2025 10 19 01  00 37 35.173   +26 42 30.10  .08171 1.0726 158.4 21.5 12.6  66
2025 10 19 02  00 37 44.089   +26 43 22.40  .08188 1.0727 158.4 21.5 13.0  66
2025 10 19 03  00 37 52.974   +26 44 14.37  .08205 1.0729 158.4 21.6 13.4  66
2025 10 19 04  00 38 01.830   +26 45 06.01  .08222 1.0730 158.4 21.6 13.8  66
2025 10 19 05  00 38 10.656   +26 45 57.33  .08239 1.0732 158.4 21.6 14.2  66
2025 10 19 06  00 38 19.452   +26 46 48.33  .08256 1.0733 158.4 21.6 14.7  66
2025 10 19 07  00 38 28.218   +26 47 39.02  .08273 1.0735 158.4 21.6 15.1  66
2025 10 19 08  00 38 36.955   +26 48 29.38  .08290 1.0736 158.4 21.6 15.6  66
2025 10 19 09  00 38 45.663   +26 49 19.43  .08307 1.0738 158.4 21.6 16.0  66
2025 10 19 10  00 38 54.342   +26 50 09.17  .08324 1.0739 158.4 21.6 16.5  66
2025 10 19 11  00 39 02.991   +26 50 58.59  .08342 1.0741 158.4 21.6 16.9  66
2025 10 19 12  00 39 11.613   +26 51 47.71  .08359 1.0742 158.4 21.6 17.4  66
2025 10 19 13  00 39 20.205   +26 52 36.52  .08376 1.0743 158.4 21.6 17.8  66
2025 10 19 14  00 39 28.769   +26 53 25.02  .08393 1.0745 158.4 21.6 18.3  66
2025 10 19 15  00 39 37.305   +26 54 13.22  .08410 1.0746 158.4 21.6 18.8  66
2025 10 19 16  00 39 45.812   +26 55 01.12  .08427 1.0748 158.4 21.6 19.3  66
2025 10 19 17  00 39 54.292   +26 55 48.71  .08445 1.0749 158.4 21.6 19.7  66
2025 10 19 18  00 40 02.744   +26 56 36.01  .08462 1.0751 158.4 21.6 20.2  66
2025 10 19 19  00 40 11.168   +26 57 23.01  .08479 1.0752 158.4 21.6 20.7  66
2025 10 19 20  00 40 19.565   +26 58 09.72  .08496 1.0754 158.4 21.6 21.2  66
2025 10 19 21  00 40 27.934   +26 58 56.13  .08513 1.0756 158.4 21.6 21.7  66
2025 10 19 22  00 40 36.276   +26 59 42.25  .08531 1.0757 158.4 21.6 22.2  66
2025 10 19 23  00 40 44.591   +27 00 28.08  .08548 1.0759 158.4 21.6 22.7  66
2025 10 20 00  00 40 52.879   +27 01 13.62  .08565 1.0760 158.4 21.7 23.2  66